Parkersburg, WV

4:59 PM EDT on September 19, 2017 (GMT -0400)
Wood County Wilson

Weather History for KPKB - March, 2013

Change the Weather History Date:

Thursday, March 7, 2013

  Actual Average Record
Temperature  
Mean Temperature 38 °F 40 °F  
Max Temperature 42 °F 51 °F 80 °F (2009)
Min Temperature 33 °F 30 °F 4 °F (1890)
Degree Days  
Heating Degree Days 27 25  
Month to date heating degree days 221 180  
Since 1 July heating degree days 3957 3970  
Cooling Degree Days 0 0  
Month to date cooling degree days 0 0  
Year to date cooling degree days 0 0  
Moisture  
Dew Point 28 °F    
Average Humidity 69    
Maximum Humidity 82    
Minimum Humidity 55    
Precipitation  
Precipitation T in 0.12 in 0.58 in (2017)
Month to date precipitation 0.78 0.76  
Year to date precipitation 5.80 6.41  
Sea Level Pressure  
Sea Level Pressure 30.29 in    
Wind  
Wind Speed 7 mph (WNW)    
Max Wind Speed 14 mph    
Max Gust Speed 17 mph    
Visibility 8 miles    
Events      
T = Trace of Precipitation, MM = Missing Value Source: NWS Daily Summary

Daily Weather History Graph

Daily Weather History Graph

Search for Another Location

Airport or City:

Trip Planner

Search our weather history database for the weather conditions in past years. The results will help you decide how hot, cold, wet, or windy it might be!

Date:

Astronomy

Mar. 07, 2013 Rise Set
Actual Time 6:49 AM EST 6:24 PM EST
Civil Twilight 6:22 AM EST 6:51 PM EST
Nautical Twilight 5:51 AM EST 7:22 PM EST
Astronomical Twilight 5:20 AM EST 7:53 PM EST
Moon 3:46 AM EST (3/7) 2:12 PM EST (3/7)
Length of Visible Light 12h 29m
Length of Day
11h 35m
Waning Crescent, 20% of the Moon is Illuminated
Mar 7
Waning Crescent
Mar 11
New
Mar 19
First Quarter
Mar 27
Full
Apr 3
Last Quarter

Hourly Weather History & Observations

Time (EST) Temp. Windchill Dew Point Humidity Pressure Visibility Wind Dir Wind Speed Gust Speed Precip Events Conditions
12:41 AM 35.6 °F 29.9 °F 30.2 °F 81% 30.18 in 7.0 mi West 6.9 mph - N/A   Overcast
12:53 AM 35.1 °F 28.6 °F 30.0 °F 82% 30.21 in 7.0 mi West 8.1 mph - N/A   Overcast
1:29 AM 35.6 °F 29.2 °F 28.4 °F 75% 30.19 in 7.0 mi West 8.1 mph - N/A   Overcast
1:53 AM 35.1 °F 30.1 °F 28.9 °F 78% 30.21 in 7.0 mi West 5.8 mph - N/A   Overcast
2:15 AM 35.6 °F 30.7 °F 28.4 °F 75% 30.20 in 6.0 mi West 5.8 mph - N/A   Haze
2:53 AM 34.0 °F 27.2 °F 28.9 °F 82% 30.22 in 6.0 mi West 8.1 mph - N/A   Haze
3:53 AM 34.0 °F 28.0 °F 28.0 °F 79% 30.22 in 6.0 mi West 6.9 mph - N/A   Haze
4:53 AM 33.1 °F 27.7 °F 28.0 °F 82% 30.24 in 6.0 mi West 5.8 mph - N/A   Haze
5:53 AM 33.1 °F 26.9 °F 28.0 °F 82% 30.26 in 6.0 mi WNW 6.9 mph - N/A   Haze
6:53 AM 33.1 °F 27.7 °F 28.0 °F 82% 30.28 in 6.0 mi West 5.8 mph - N/A   Haze
7:53 AM 33.1 °F 26.1 °F 28.0 °F 82% 30.32 in 4.0 mi West 8.1 mph - N/A   Haze
8:53 AM 33.1 °F 28.7 °F 28.0 °F 82% 30.32 in 4.0 mi WNW 4.6 mph - N/A   Haze
9:53 AM 34.0 °F 31.0 °F 28.0 °F 79% 30.33 in 5.0 mi West 3.5 mph - N/A   Haze
10:53 AM 37.0 °F 33.3 °F 28.9 °F 73% 30.33 in 6.0 mi NW 4.6 mph - N/A   Haze
11:53 AM 39.0 °F 33.4 °F 28.9 °F 67% 30.33 in 6.0 mi WNW 8.1 mph - N/A   Haze
12:53 PM 39.0 °F 36.8 °F 28.0 °F 65% 30.32 in 8.0 mi NW 3.5 mph - N/A   Overcast
1:53 PM 39.9 °F 35.8 °F 28.0 °F 63% 30.30 in 9.0 mi West 5.8 mph - N/A   Overcast
2:53 PM 41.0 °F 35.8 °F 27.0 °F 57% 30.30 in 9.0 mi WNW 8.1 mph - 0.00 in   Overcast
3:53 PM 41.0 °F 35.2 °F 26.1 °F 55% 30.30 in 9.0 mi WNW 9.2 mph - N/A   Overcast
4:53 PM 41.0 °F 35.2 °F 26.1 °F 55% 30.31 in 9.0 mi WNW 9.2 mph - N/A   Overcast
5:53 PM 39.9 °F 34.5 °F 26.1 °F 58% 30.32 in 10.0 mi West 8.1 mph - N/A   Overcast
6:53 PM 39.0 °F 35.7 °F 26.1 °F 60% 30.33 in 10.0 mi West 4.6 mph - N/A   Overcast
7:53 PM 37.9 °F 33.5 °F 26.1 °F 62% 30.34 in 10.0 mi West 5.8 mph - N/A   Overcast
8:53 PM 37.9 °F 32.1 °F 27.0 °F 65% 30.34 in 10.0 mi West 8.1 mph - N/A   Overcast
9:53 PM 37.0 °F 30.4 °F 28.0 °F 70% 30.35 in 10.0 mi West 9.2 mph - N/A   Overcast
10:32 PM 37.4 °F 32.8 °F 28.4 °F 70% 30.33 in 9.0 mi WNW 5.8 mph - N/A   Overcast
10:53 PM 37.0 °F 33.3 °F 28.0 °F 70% 30.36 in 10.0 mi WNW 4.6 mph - N/A   Overcast
11:11 PM 37.4 °F 32.1 °F 28.4 °F 70% 30.34 in 10.0 mi NW 6.9 mph - N/A   Overcast
11:18 PM 37.4 °F 32.1 °F 28.4 °F 70% 30.34 in 10.0 mi Variable 6.9 mph - N/A   Overcast
11:49 PM 37.4 °F 33.8 °F 28.4 °F 70% 30.34 in 10.0 mi NNW 4.6 mph - N/A   Overcast
11:53 PM 37.0 °F 31.0 °F 28.0 °F 70% 30.35 in 10.0 mi NNW 8.1 mph - N/A   Overcast